TimeEST,TemperatureF,Dew PointF,Humidity,Sea Level PressureIn,VisibilityMPH,Wind Direction,Wind SpeedMPH,Gust SpeedMPH,PrecipitationIn,Events,Conditions,WindDirDegrees,DateUTC
12:15 AM,30.2,28.4,93,30.31,10.0,Calm,Calm,-,N/A,,Clear,0,2013-12-11 05:15:00
12:35 AM,30.2,30.2,100,30.32,10.0,Calm,Calm,-,N/A,,Clear,0,2013-12-11 05:35:00
12:55 AM,30.2,30.2,100,30.32,10.0,Calm,Calm,-,N/A,,Clear,0,2013-12-11 05:55:00
1:35 AM,30.2,28.4,93,30.32,10.0,Calm,Calm,-,N/A,,Clear,0,2013-12-11 06:35:00
1:55 AM,28.4,26.6,93,30.31,10.0,Calm,Calm,-,N/A,,Clear,0,2013-12-11 06:55:00
2:15 AM,28.4,28.4,100,30.32,10.0,Calm,Calm,-,N/A,,Clear,0,2013-12-11 07:15:00
2:35 AM,30.2,26.6,86,30.32,10.0,Calm,Calm,-,N/A,,Clear,0,2013-12-11 07:35:00
2:55 AM,28.4,28.4,100,30.34,10.0,Calm,Calm,-,N/A,,Clear,0,2013-12-11 07:55:00
3:15 AM,30.2,28.4,93,30.35,10.0,Calm,Calm,-,N/A,,Clear,0,2013-12-11 08:15:00
3:35 AM,28.4,26.6,93,30.35,10.0,Calm,Calm,-,N/A,,Clear,0,2013-12-11 08:35:00
3:55 AM,28.4,28.4,100,30.35,10.0,Calm,Calm,-,N/A,,Clear,0,2013-12-11 08:55:00
4:15 AM,28.4,28.4,100,30.35,10.0,Calm,Calm,-,N/A,,Clear,0,2013-12-11 09:15:00
4:35 AM,26.6,26.6,100,30.35,10.0,Calm,Calm,-,N/A,,Clear,0,2013-12-11 09:35:00
4:55 AM,26.6,26.6,100,30.35,10.0,Calm,Calm,-,N/A,,Clear,0,2013-12-11 09:55:00
5:15 AM,26.6,26.6,100,30.37,10.0,Calm,Calm,-,N/A,,Clear,0,2013-12-11 10:15:00
5:35 AM,28.4,28.4,100,30.39,10.0,Calm,Calm,-,N/A,,Clear,0,2013-12-11 10:35:00
5:55 AM,26.6,24.8,93,30.39,10.0,Calm,Calm,-,N/A,,Clear,0,2013-12-11 10:55:00
6:15 AM,24.8,24.8,100,30.40,10.0,Calm,Calm,-,N/A,,Clear,0,2013-12-11 11:15:00
6:35 AM,26.6,26.6,100,30.41,10.0,Calm,Calm,-,N/A,,Clear,0,2013-12-11 11:35:00
6:55 AM,26.6,26.6,100,30.42,10.0,Calm,Calm,-,N/A,,Clear,0,2013-12-11 11:55:00
7:15 AM,24.8,24.8,100,30.43,10.0,Calm,Calm,-,N/A,,Clear,0,2013-12-11 12:15:00
7:35 AM,26.6,26.6,100,30.44,10.0,Calm,Calm,-,N/A,,Clear,0,2013-12-11 12:35:00
7:55 AM,26.6,26.6,100,30.44,10.0,Calm,Calm,-,N/A,,Clear,0,2013-12-11 12:55:00
8:15 AM,30.2,30.2,100,30.44,10.0,Calm,Calm,-,N/A,,Clear,0,2013-12-11 13:15:00
8:35 AM,32.0,30.2,93,30.44,10.0,Calm,Calm,-,N/A,,Clear,0,2013-12-11 13:35:00
8:55 AM,33.8,28.4,81,30.44,10.0,Calm,Calm,-,N/A,,Clear,0,2013-12-11 13:55:00
9:15 AM,35.6,28.4,75,30.45,10.0,WNW,3.5,-,N/A,,Clear,300,2013-12-11 14:15:00
9:35 AM,37.4,26.6,65,30.45,10.0,NW,4.6,-,N/A,,Clear,310,2013-12-11 14:35:00
9:55 AM,37.4,26.6,65,30.46,10.0,NW,5.8,-,N/A,,Clear,310,2013-12-11 14:55:00
10:15 AM,39.2,26.6,61,30.45,10.0,NW,3.5,-,N/A,,Clear,320,2013-12-11 15:15:00
10:35 AM,39.2,26.6,61,30.45,10.0,NW,4.6,-,N/A,,Clear,310,2013-12-11 15:35:00
10:55 AM,41.0,24.8,53,30.44,10.0,Calm,Calm,-,N/A,,Clear,0,2013-12-11 15:55:00
11:15 AM,42.8,24.8,49,30.43,10.0,WSW,3.5,-,N/A,,Clear,240,2013-12-11 16:15:00
11:35 AM,42.8,24.8,49,30.42,10.0,Calm,Calm,-,N/A,,Clear,0,2013-12-11 16:35:00
11:55 AM,42.8,21.2,42,30.40,10.0,Calm,Calm,-,N/A,,Clear,0,2013-12-11 16:55:00
12:15 PM,44.6,24.8,46,30.39,10.0,South,4.6,-,N/A,,Clear,180,2013-12-11 17:15:00
12:35 PM,44.6,24.8,46,30.37,10.0,WSW,6.9,-,N/A,,Clear,240,2013-12-11 17:35:00
12:55 PM,44.6,24.8,46,30.36,10.0,SW,5.8,-,N/A,,Clear,220,2013-12-11 17:55:00
1:15 PM,46.4,24.8,43,30.35,10.0,SSW,6.9,-,N/A,,Clear,210,2013-12-11 18:15:00
1:35 PM,46.4,24.8,43,30.35,10.0,SSW,8.1,-,N/A,,Clear,200,2013-12-11 18:35:00
1:55 PM,46.4,26.6,46,30.33,10.0,WSW,6.9,-,N/A,,Clear,250,2013-12-11 18:55:00
2:15 PM,46.4,24.8,43,30.32,10.0,SSW,9.2,-,N/A,,Clear,210,2013-12-11 19:15:00
2:35 PM,48.2,24.8,40,30.32,10.0,SSW,5.8,-,N/A,,Clear,210,2013-12-11 19:35:00
2:55 PM,48.2,24.8,40,30.32,10.0,SSW,9.2,-,N/A,,Clear,210,2013-12-11 19:55:00
3:15 PM,48.2,24.8,40,30.31,10.0,SW,6.9,-,N/A,,Clear,230,2013-12-11 20:15:00
3:35 PM,48.2,23.0,37,30.30,10.0,SW,5.8,-,N/A,,Clear,220,2013-12-11 20:35:00
3:55 PM,46.4,24.8,43,30.30,10.0,SSW,10.4,-,N/A,,Clear,200,2013-12-11 20:55:00
4:15 PM,46.4,24.8,43,30.30,10.0,SW,4.6,-,N/A,,Clear,220,2013-12-11 21:15:00
4:35 PM,44.6,24.8,46,30.30,10.0,SW,5.8,-,N/A,,Clear,220,2013-12-11 21:35:00
4:55 PM,44.6,24.8,46,30.30,10.0,SW,3.5,-,N/A,,Clear,230,2013-12-11 21:55:00
5:15 PM,42.8,26.6,53,30.30,10.0,Calm,Calm,-,N/A,,Clear,0,2013-12-11 22:15:00
5:35 PM,37.4,30.2,75,30.31,10.0,Calm,Calm,-,N/A,,Clear,0,2013-12-11 22:35:00
5:55 PM,35.6,30.2,81,30.31,10.0,Calm,Calm,-,N/A,,Clear,0,2013-12-11 22:55:00
6:15 PM,35.6,32.0,87,30.31,10.0,Calm,Calm,-,N/A,,Clear,0,2013-12-11 23:15:00
6:35 PM,35.6,30.2,81,30.31,10.0,Calm,Calm,-,N/A,,Clear,0,2013-12-11 23:35:00
6:55 PM,35.6,30.2,81,30.31,10.0,Calm,Calm,-,N/A,,Clear,0,2013-12-11 23:55:00
7:15 PM,35.6,32.0,87,30.31,10.0,Calm,Calm,-,N/A,,Clear,0,2013-12-12 00:15:00
7:35 PM,35.6,32.0,87,30.31,10.0,Calm,Calm,-,N/A,,Clear,0,2013-12-12 00:35:00
7:55 PM,35.6,32.0,87,30.31,10.0,Calm,Calm,-,N/A,,Clear,0,2013-12-12 00:55:00
8:15 PM,35.6,30.2,81,30.31,10.0,Calm,Calm,-,N/A,,Clear,0,2013-12-12 01:15:00
8:35 PM,35.6,32.0,87,30.31,10.0,Calm,Calm,-,N/A,,Clear,0,2013-12-12 01:35:00
8:55 PM,33.8,32.0,93,30.31,10.0,Calm,Calm,-,N/A,,Clear,0,2013-12-12 01:55:00
9:15 PM,33.8,32.0,93,30.31,10.0,Calm,Calm,-,N/A,,Clear,0,2013-12-12 02:15:00
9:35 PM,33.8,32.0,93,30.30,10.0,SSE,3.5,-,N/A,,Clear,160,2013-12-12 02:35:00
9:55 PM,33.8,30.2,87,30.30,10.0,Calm,Calm,-,N/A,,Clear,0,2013-12-12 02:55:00
10:15 PM,33.8,30.2,87,30.30,10.0,South,3.5,-,N/A,,Clear,190,2013-12-12 03:15:00
10:35 PM,35.6,30.2,81,30.30,10.0,Calm,Calm,-,N/A,,Clear,0,2013-12-12 03:35:00
10:55 PM,32.0,30.2,93,30.29,10.0,Calm,Calm,-,N/A,,Clear,0,2013-12-12 03:55:00
11:15 PM,30.2,30.2,100,30.29,10.0,Calm,Calm,-,N/A,,Clear,0,2013-12-12 04:15:00
11:35 PM,30.2,30.2,100,30.28,10.0,Calm,Calm,-,N/A,,Clear,0,2013-12-12 04:35:00
11:55 PM,30.2,30.2,100,30.28,10.0,Calm,Calm,-,N/A,,Clear,0,2013-12-12 04:55:00